Date String (YYYY-MM-DD hh:mm:ss) UTC,Instrument flags,Ambient pressure (hPa),Sample flow (lpm),Bypass flow (lpm),Sample temperature (°C),Ambient temperature (°C),ASC tube jacket temperature (°C),LED temperature (°C),Box temperature (°C),Sample RH (%),Span deviation,Mass concentration (μg/m³),Mass concentration (μg/m³),Mass concentration (μg/m³)
DateTimeUTC,F1_M11,P_M11,Q1_M11,Q2_M11,T1_M11,T2_M11,T3_M11,T4_M11,T5_M11,U1_M11,ZSPAN_M11,X0_M11,X2_M11,X1_M11
2022-06-10 19:00:00,,0826.1,5.01,0.00,28.8,27.9,00.0,37.5,30.8,29.4,0000.0,0024.88,0007.71,0005.09
2022-06-10 19:01:00,,0826.2,5.00,0.00,28.8,27.7,00.0,37.5,30.8,29.6,0000.0,0024.75,0007.72,0005.09
2022-06-10 19:02:00,,0826.2,5.00,0.00,28.8,27.1,00.0,37.5,30.6,28.7,0000.0,0024.11,0007.62,0005.10
2022-06-10 19:03:00,,0826.2,4.99,0.00,28.7,26.7,00.0,37.5,30.5,28.6,0000.0,0023.71,0007.59,0005.10
2022-06-10 19:04:00,,0826.2,5.01,0.00,28.6,26.7,00.0,37.5,30.4,29.8,0000.0,0024.74,0007.56,0005.10
2022-06-10 19:05:00,,0826.2,4.99,0.00,28.6,26.8,00.0,37.5,30.3,29.7,0000.0,0024.15,0007.61,0005.09
2022-06-10 19:06:00,,0826.2,4.99,0.00,28.6,26.9,00.0,37.4,30.4,29.9,0000.0,0023.64,0007.57,0005.06
2022-06-10 19:07:00,,0826.1,5.00,0.00,28.6,27.1,00.0,37.4,30.5,31.3,0000.0,0022.72,0007.48,0005.03
2022-06-10 19:08:00,,0826.1,5.01,0.00,28.6,27.3,00.0,37.5,30.6,30.8,0000.0,0022.41,0007.45,0004.99
2022-06-10 19:09:00,,0826.2,5.00,0.00,28.6,27.4,00.0,37.5,30.6,31.0,0000.0,0021.61,0007.34,0004.95
2022-06-10 19:10:00,,0826.2,5.00,0.00,28.7,27.6,00.0,37.5,30.7,29.1,0000.0,0020.57,0007.17,0004.90
2022-06-10 19:11:00,,0826.2,4.99,0.00,28.7,27.8,00.0,37.5,30.8,30.0,0000.0,0020.20,0007.13,0004.85
2022-06-10 19:12:00,,0826.2,5.00,0.00,28.8,27.9,00.0,37.5,30.8,31.4,0000.0,0020.50,0007.06,0004.81
2022-06-10 19:13:00,,0826.2,5.01,0.00,28.8,27.6,00.0,37.5,30.7,30.2,0000.0,0021.03,0007.03,0004.75
2022-06-10 19:14:00,,0826.2,4.99,0.00,28.7,26.9,00.0,37.5,30.5,29.9,0000.0,0022.06,0007.01,0004.71
2022-06-10 19:15:00,,0826.2,4.99,0.00,28.7,26.6,00.0,37.4,30.4,29.5,0000.0,0021.45,0006.94,0004.68
2022-06-10 19:16:00,,0826.2,5.00,0.00,28.6,26.6,00.0,37.4,30.3,30.1,0000.0,0021.68,0006.87,0004.66
2022-06-10 19:17:00,,0826.2,5.01,0.00,28.5,26.7,00.0,37.4,30.3,29.0,0000.0,0022.73,0006.87,0004.66
2022-06-10 19:18:00,,0826.2,5.00,0.00,28.5,26.9,00.0,37.4,30.4,29.5,0000.0,0023.06,0006.90,0004.66
2022-06-10 19:19:00,,0826.2,4.99,0.00,28.6,27.1,00.0,37.4,30.5,30.1,0000.0,0022.89,0006.87,0004.66
2022-06-10 19:20:00,,0826.1,5.01,0.00,28.6,27.3,00.0,37.4,30.5,30.0,0000.0,0024.10,0006.96,0004.67
2022-06-10 19:21:00,,0826.0,5.00,0.00,28.6,27.5,00.0,37.4,30.6,29.8,0000.0,0025.71,0006.97,0004.67
2022-06-10 19:22:00,,0826.0,4.98,0.00,28.7,27.6,00.0,37.5,30.7,30.2,0000.0,0026.81,0006.95,0004.67
2022-06-10 19:23:00,,0826.0,5.00,0.00,28.7,27.8,00.0,37.5,30.7,29.8,0000.0,0027.23,0006.88,0004.66
2022-06-10 19:24:00,,0826.0,4.99,0.00,28.8,27.9,00.0,37.5,30.8,29.0,0000.0,0027.70,0006.86,0004.66
2022-06-10 19:25:00,,0826.1,5.01,0.00,28.8,27.7,00.0,37.5,30.8,29.7,0000.0,0026.53,0006.85,0004.66
2022-06-10 19:26:00,,0826.0,5.00,0.00,28.8,27.1,00.0,37.5,30.6,28.8,0000.0,0026.98,0006.88,0004.67
2022-06-10 19:27:00,,0826.0,4.99,0.00,28.7,26.7,00.0,37.4,30.5,29.6,0000.0,0025.96,0006.94,0004.67
2022-06-10 19:28:00,,0826.0,5.00,0.00,28.6,26.7,00.0,37.4,30.4,29.6,0000.0,0025.27,0006.92,0004.67
2022-06-10 19:29:00,,0826.0,5.01,0.00,28.6,26.8,00.0,37.4,30.3,30.4,0000.0,0024.92,0006.90,0004.67
2022-06-10 19:30:00,,0826.0,5.00,0.00,28.5,26.9,00.0,37.4,30.4,29.7,0000.0,0025.16,0006.83,0004.66
2022-06-10 19:31:00,,0826.0,4.99,0.00,28.6,27.1,00.0,37.4,30.5,29.9,0000.0,0024.39,0006.76,0004.66
2022-06-10 19:32:00,,0825.9,5.00,0.00,28.6,27.3,00.0,37.4,30.5,29.5,0000.0,0023.47,0006.80,0004.67
2022-06-10 19:33:00,,0825.9,5.00,0.00,28.6,27.4,00.0,37.4,30.6,30.0,0000.0,0022.96,0006.87,0004.69
2022-06-10 19:34:00,,0825.8,5.00,0.00,28.7,27.6,00.0,37.5,30.7,29.3,0000.0,0022.30,0006.91,0004.72
2022-06-10 19:35:00,,0826.0,5.00,0.00,28.7,27.8,00.0,37.5,30.7,29.1,0000.0,0021.56,0006.93,0004.74
2022-06-10 19:36:00,,0826.1,5.00,0.00,28.8,27.9,00.0,37.5,30.8,29.1,0000.0,0021.51,0006.87,0004.75
2022-06-10 19:37:00,,0826.0,5.00,0.00,28.8,27.5,00.0,37.5,30.7,29.3,0000.0,0021.16,0006.90,0004.78
2022-06-10 19:38:00,,0826.0,5.00,0.00,28.7,26.8,00.0,37.4,30.5,31.0,0000.0,0020.54,0006.86,0004.80
2022-06-10 19:39:00,,0825.9,4.99,0.00,28.6,26.6,00.0,37.4,30.4,31.1,0000.0,0019.73,0006.84,0004.84
2022-06-10 19:40:00,,0825.7,5.01,0.00,28.6,26.6,00.0,37.4,30.3,29.4,0000.0,0020.15,0006.88,0004.86
2022-06-10 19:41:00,,0825.8,5.00,0.00,28.5,26.7,00.0,37.4,30.3,29.8,0000.0,0019.77,0006.94,0004.89
2022-06-10 19:42:00,,0825.9,5.00,0.00,28.5,26.9,00.0,37.4,30.4,29.9,0000.0,0021.42,0007.03,0004.92
2022-06-10 19:43:00,,0825.7,5.00,0.00,28.5,27.1,00.0,37.4,30.4,29.5,0000.0,0021.14,0007.12,0004.95
2022-06-10 19:44:00,,0825.9,5.00,0.00,28.6,27.3,00.0,37.4,30.5,29.7,0000.0,0021.15,0007.16,0004.97
2022-06-10 19:45:00,,0826.0,5.01,0.00,28.6,27.5,00.0,37.4,30.6,30.8,0000.0,0021.37,0007.21,0005.00
2022-06-10 19:46:00,,0825.9,5.01,0.00,28.7,27.6,00.0,37.4,30.7,31.0,0000.0,0021.30,0007.28,0005.02
2022-06-10 19:47:00,,0826.0,5.00,0.00,28.7,27.8,00.0,37.5,30.7,30.9,0000.0,0022.50,0007.40,0005.05
2022-06-10 19:48:00,,0826.0,5.00,0.00,28.8,27.9,00.0,37.5,30.8,29.9,0000.0,0023.11,0007.46,0005.07
2022-06-10 19:49:00,,0825.9,5.00,0.00,28.8,27.7,00.0,37.5,30.8,28.8,0000.0,0023.68,0007.49,0005.06
2022-06-10 19:50:00,,0825.9,5.00,0.00,28.7,27.1,00.0,37.4,30.6,30.1,0000.0,0023.91,0007.54,0005.07
2022-06-10 19:51:00,,0825.8,5.00,0.00,28.7,26.8,00.0,37.4,30.5,29.5,0000.0,0025.14,0007.63,0005.09
2022-06-10 19:52:00,,0826.1,5.00,0.00,28.6,26.7,00.0,37.4,30.4,29.5,0000.0,0025.64,0007.73,0005.11
2022-06-10 19:53:00,,0825.8,4.99,0.00,28.6,26.8,00.0,37.4,30.3,30.4,0000.0,0024.35,0007.77,0005.13
2022-06-10 19:54:00,,0825.7,5.01,0.00,28.6,27.0,00.0,37.4,30.4,30.1,0000.0,0023.38,0007.70,0005.13
2022-06-10 19:55:00,,0825.6,5.00,0.00,28.6,27.1,00.0,37.4,30.5,30.4,0000.0,0023.01,0007.62,0005.12
2022-06-10 19:56:00,,0825.6,5.00,0.00,28.6,27.3,00.0,37.4,30.5,30.4,0000.0,0022.78,0007.66,0005.13
2022-06-10 19:57:00,,0825.6,5.00,0.00,28.6,27.5,00.0,37.4,30.6,30.4,0000.0,0022.71,0007.61,0005.13
2022-06-10 19:58:00,,0825.6,4.99,0.00,28.7,27.6,00.0,37.5,30.7,30.5,0000.0,0021.96,0007.59,0005.13
2022-06-10 19:59:00,,0825.6,5.00,0.00,28.7,27.8,00.0,37.5,30.7,30.9,0000.0,0022.07,0007.65,0005.13
